Regional Weather Roundup
Issued by NWS

Home | Current Version | Previous Version | Graphics & Text | Print | Product List | Glossary Off
Versions: 1 2 3 4 5 6 7 8 9 10 11 12 13 14 15 16 17 18 19 20 21 22 23 24 25 26 27 28 29 30 31 32 33 34 35 36 37 38 39 40 41 42 43 44 45 46 47 48 49 50

000
ASUS43 KMKX 270114
RWRWI

WISCONSIN REGIONAL WEATHER ROUNDUP
NATIONAL WEATHER SERVICE MILWAUKEE/SULLIVAN WI
800 PM CDT TUE MAY 26 2015

NOTE: "FAIR" INDICATES FEW OR NO CLOUDS BELOW 12,000 FEET WITH NO
SIGNIFICANT WEATHER AND/OR OBSTRUCTIONS TO VISIBILITY.

WIZ001-002-006>008-014>016-023>028-270200-
NORTHWEST WISCONSIN

CITY           SKY/WX    TMP DP  RH WIND       PRES   REMARKS
SUPERIOR ARPT  CLOUDY    53  51  91 SE3       29.77F
ASHLAND        CLOUDY    53  52  96 NE7       29.76F
HAYWARD        LGT RAIN  54  52  93 N7        29.75S
SIREN          CLOUDY    57  56  97 CALM      29.76S
CUMBERLAND     RAIN      54  54 100 N7        29.74S
RICE LAKE      RAIN      56  55  93 CALM      29.75S
CHETEK         LGT RAIN  56  56  99 NW6       29.73S
LADYSMITH      RAIN      57  56  96 N13       29.73F
EAU CLAIRE     RAIN      59  57  93 W7        29.70S FOG
MENOMONIE      LGT RAIN  59  58  97 W7        29.73R
NEW RICHMOND   LGT RAIN  57  57 100 N10       29.76R
OSCEOLA        LGT RAIN  57  57 100 N5        29.78F
$$

WIZ003>005-009-010-017-018-270200-
NORTH CENTRAL WISCONSIN

CITY           SKY/WX    TMP DP  RH WIND       PRES   REMARKS
MANITOWISH WTR LGT RAIN  56  56 100 N7        29.71F
ARBOR VITAE    CLOUDY    59  58  94 NE5       29.70F
WOODRUFF       CLOUDY    59  58  94 NE5       29.70F
RHINELANDER    LGT RAIN  61  59  93 N6        29.69S FOG
EAGLE RIVER    CLOUDY    60  60  99 N6        29.69F
LAND O LAKES   LGT RAIN  59  58  97 N8        29.72S
PHILLIPS       LGT RAIN  58  58  98 N7        29.71R
TOMAHAWK       HVY RAIN  61  60  95 CALM      29.69S
MEDFORD        CLOUDY    62  61  96 N6        29.66S
MERRILL        HVY RAIN  61  61 100 N8        29.66F
$$

WIZ029-030-035-036-043>047-270200-
CENTRAL WISCONSIN

CITY           SKY/WX    TMP DP  RH WIND       PRES   REMARKS
WAUSAU         LGT RAIN  63  62  97 N3        29.62F FOG
MOSINEE        CLOUDY    63  63 100 NW7       29.64F
MARSHFIELD     LGT RAIN  64  60  87 N10       29.62F FOG
STEVENS POINT  CLOUDY    62  62  99 NE5       29.62F
WAUPACA        CLOUDY    68  68  98 NW3       29.61S
WAUTOMA        CLOUDY    69  67  93 S7        29.62S
WISC RAPIDS    CLOUDY    65  62  90 NE6       29.62F
CAMP DOUGLAS   MOCLDY    63  63 100 W16       29.62
$$

WIZ011>013-019>022-031-037>040-048>050-270200-
NORTHEAST WISCONSIN

CITY           SKY/WX    TMP DP  RH WIND       PRES   REMARKS
ANTIGO         LGT RAIN  61  60  97 NE5       29.64F
SHAWANO        MOCLDY    67  65  94 SE3       29.62F FOG
OCONTO         CLOUDY    62  62 100 SE6       29.63F
STURGEON BAY   CLOUDY    55  52  88 SE12      29.69F VSB 1/4
GREEN BAY      LGT RAIN  67  64  90 S12       29.63S FOG
MANITOWOC      CLOUDY    51  51 100 S6        29.68S
APPLETON       MOCLDY    66  64  94 S10       29.63S
CLINTONVILLE   CLOUDY    66  64  94 CALM      29.61F
OSHKOSH        CLOUDY    68  61  78 S21G29    29.63S
$$

WIZ032>034-041-042-053>061-270200-
SOUTHWEST WISCONSIN

CITY           SKY/WX    TMP DP  RH WIND       PRES   REMARKS
LA CROSSE      LGT RAIN  63  59  87 W10       29.71R
SPARTA         RAIN      60  58  94 W14G29    29.68R
VIROQUA        CLOUDY    60  60 100 W12G23    29.73R
BOSCOBEL       CLOUDY    66  59  78 SW9G16    29.74R
PRAIRIE DU CHI CLOUDY    65  57  77 SW10      29.75R
PLATTEVILLE    MOCLDY    65  60  81 W13       29.77R
$$

WIZ056-057-062-063-064-067-068-270200-
SOUTH CENTRAL WISCONSIN

CITY           SKY/WX    TMP DP  RH WIND       PRES   REMARKS
REEDSBURG      CLOUDY    63  59  86 SW18G24   29.69R
BARABOO/DELLS  CLOUDY    63  56  79 W17G26    29.69R
LONE ROCK      MOCLDY    65  58  78 W17G23    29.73R
MINERAL POINT  MOCLDY    64  59  82 W14G21    29.76R
MADISON        PTCLDY    65  58  78 SW10G21   29.71R
MIDDLETON      PTCLDY    65  59  82 W10G23    29.73R
WATERTOWN      PTCLDY    66  61  82 SW16G26   29.71R
MONROE         MOCLDY    66  59  77 SW17G23   29.77R
JANESVILLE     PTCLDY    68  59  73 SW17      29.76R
$$

WIZ051-052-058>065-066-070>072-270200-
SOUTHEAST WISCONSIN

CITY           SKY/WX    TMP DP  RH WIND       PRES   REMARKS
MILWAUKEE      MOCLDY    71  58  63 SW16G24   29.73R
WAUKESHA       MOCLDY    66  57  72 SW16G23   29.74R
MILWAUKEE/TIMM CLOUDY    72  55  56 SW14      29.72R
RACINE         CLEAR     70  58  65 SW12      29.76R
BURLINGTON     PTCLDY    67  57  70 SW16G23   29.76R
KENOSHA        CLEAR     69  60  73 SW18G24   29.76R
FOND DU LAC    CLOUDY    67  59  75 SW18G26   29.66R
SHEBOYGAN      LGT RAIN  66  59  78 S8        29.67S
WEST BEND      CLOUDY    68  55  64 SW15G25   29.70R
JUNEAU         CLOUDY    65  58  78 SW23G29   29.71R
$$

LSZ147-162-270200-
LAKE SUPERIOR

STATION/POSITION TIME  TEMP    WIND        PRES    WAVE
                       AIR SEA DIR/SP/G            HT/PER
                 (UTC) (F)     (DEG/KT/KT) (MB)    (FT/S)
W MID LAKE BUOY  0050   41 37  350/  4/  6 1085.0S   0
DEVILS ISLAND    0100   47      30/  6/ 10 1085.0F
PORT WING        0040   48      40/  7/  9 1085.0F
SAXON HARBOR     0040   45        CALM     1081.0S
$$

LMZ867-665-643>646-270200-
LAKE MICHIGAN

STATION/POSITION TIME  TEMP    WIND        PRES    WAVE
                       AIR SEA DIR/SP/G            HT/PER
                 (UTC) (F)     (DEG/KT/KT) (MB)    (FT/S)
CHAMBERS ISLAND  0000   64     120/  7/ 13 1054.0F
N MID LAKE BUOY  0050   43 37   90/ 12/ 14 1061.0F   1/ 5
NORTHPORT PIER   0000   53     100/  8/  9 1061.0F
SISTER BAY       0018   61     160/  7/ 10   N/A
ALGOMA LAKESHORE 0038          190/  6/  9   N/A
KEWAUNEE LAKESHO 0000   49     160/ 10/ 11 1048.0F
SHEBOYGAN LAKESH 0100   51     170/ 20/ 23 1049.0F
PORT WASHINGTON  0000          210/  9/ 19 1058.0S
ATWATER BUOY     0000   62 47  200/ 14/ 17 1074.0R
MILWAUKEE LAKESH 0000   72     220/ 21/ 27   N/A
S MID LAKE BUOY  0050   46 38  200/ 12/ 12 1087.0R   2/ 4
KENOSHA   LAKESH 0100   72     240/ 13/ 20 1075.0R
$$

TC  - TEMPERATURE IN CELSIUS
VSB - VISIBILITY IN STATUTE MILES
WCI - WIND CHILL INDEX
HX  - HEAT INDEX




USA.gov is the U.S. government's official web portal to all federal, state and local government web resources and services.